Location: Audruicq
(50.8780°N, 2.0797°E)
Time: 12:03:15
(UTC+00:00)

Cosmos 990 Rocket - Pass Details

Date: 15 May 2026
Orbit: 742 x 763 km, 74.0° (Epoch: 5 June)

Event Time Altitude Azimuth Distance (km) Brightness Sun altitude
Rises 21:14:58 0° 337° (NNW) 3,207 8.9 -12.4°
Reaches altitude 10° 21:17:23 10° 341° (NNW) 2,282 7.7 -12.7°
Maximum altitude 21:22:29 58° 61° (ENE) 879 4.3 -13.1°
Enters shadow 21:26:04 19° 136° (SE) 1,722 5.2 -13.4°
